User: anonymous   Login
Location: Unspecified
(0.0000°N, 0.0000°E)
Time: 07:22:52
(UTC+00:00)
Language:

1KUNS-PF - Orbit

View from above orbital plane
View from above orbital plane
View from above satellite
View from above satellite

Ground track
Ground track

The orbit data is extracted from the following two-line orbital elements,

1 43467U 98067NQ  20224.11101800  .00035868  00000-0  20691-3 0  9997
2 43467  51.6360 359.9007 0001629 293.0423  67.0406 15.78300518128733
Epoch (UTC): 11 August 2020 02:39:51
Eccentricity: 0.0001629
inclination: 51.6360°
perigee height: 334 km
apogee height: 336 km
right ascension of ascending node: 359.9007°
argument of perigee: 293.0423°
revolutions per day: 15.78300518
mean anomaly at epoch: 67.0406°
orbit number at epoch: 12873

The dashed part of the orbit path shows where the satellite is in the earth's shadow,  

DLR